Simultaneous Nadir Overpasses (SNOs) Predictions

Prediction of SNOs between GOES-16 and METOP-C Satellite Orbit:

Table of predicted SNOs for the next 14.0 days since TLE Epoch: 8/28/2021
Index Date Time (GOES-16) GOES-16 Lat,Lon METOP-C Lat,Lon Distance(km) Time Diff (sec)
1 08/29/2021 02:50:39 -0.05, -75.20 -0.97, -79.42 479.77 80
2 08/30/2021 02:27:18 -0.04, -75.21 0.12, -74.41 89.89 80
3 08/31/2021 14:48:49 0.06, -75.24 0.90, -78.97 425.63 80
4 09/01/2021 14:25:29 0.05, -75.25 -0.25, -73.99 144.33 80
5 09/03/2021 02:47:08 -0.07, -75.24 -0.80, -78.58 379.90 80
6 09/04/2021 02:23:48 -0.06, -75.25 0.29, -73.58 190.16 80
7 09/05/2021 14:45:18 0.07, -75.29 0.71, -78.14 324.57 80
8 09/06/2021 14:21:59 0.06, -75.30 -0.44, -73.15 245.96 80
9 09/08/2021 02:43:38 -0.08, -75.31 -0.62, -77.74 277.22 80
10 09/09/2021 02:20:19 -0.06, -75.32 0.53, -72.75 293.52 80
11 09/10/2021 14:41:48 0.08, -75.37 0.52, -77.30 220.23 80
